Showing default

SJ-7, 28737

Orbit data source: Space-Track

SJ-7, 28737 is a payload satellite owned by CASC (CN) in SSO that was launched on Tue, 05 Jul 2005 UTC via a CHANG ZHENG 2D launch vehicle from the Jiuquan Satellite Launch Center, China (JSC). Payload-class satellites include a variety of spacecraft equipped with specific instruments for various scientific and technological missions. These include communications satellites like Starlink; space stations such as the ISS; scientific satellites like the Hubble; Earth observation satellites from companies like Planet Labs, Umbra, and HawkEye 360; GPS; miniature CubeSats for education and research; and military/defense satellites.

Loading next visibility...
Identifier
28737, 2005-024A
Orbit
SSO
Country
Flag of CNCN / PRC
Related business
Manufacturer
SAST
Mission
Operational Civil Technology
Bus & Motor
FY-1?, Unknown motor
Mass
~1,000 kg wet, ~1,000 kg dry
Launch date (UTC)
2005-07-05 (20 years ago)
Launch vehicle
CHANG ZHENG 2D
Launch site
Jiuquan Satellite Launch Center, China (JSC)
Object type
Payload
Rocket body
Debris
Shape & HBR
Box + 1 Pan, 1.0 m
Radar Cross Section
6.000 m², Large (>1 m²)

Expand to show TLE details & history
Last TLE update: 8 hours ago

TLE from 8 hours ago
0 SJ-7
1 28737U 05024A   25243.55312055  .00011488  00000-0  60269-3 0  9998
2 28737  97.7579 261.5488 0016301 318.7196  41.2803 15.15806037104068
Epoch: 2025-08-31T13:16Z
TLE epoch observation values (Epoch: 2025-08-31T13:16:29.615Z)
Latitude
0.00003°
Longitude
82.45399°
Altitude
513.165 km
Speed
7.612 km/s
True Right ascension
17h 26m 11s
True Declination
0° 00' 00"
Sunlit
Object was in daylight at epoch
Visualization orbit readout
Latitude
Unknown
Longitude
Unknown
Altitude
Unknown
Speed
Unknown
Apparent Right ascension
Unknown
Apparent Declination
Unknown
Sunlit
N/A
Visualization observer readout
Local Sidereal Time
12:47:11
Azimuth
Unknown
Elevation
Unknown
Doppler factor
Unknown
Orbital elements
Apogee altitude
526.757 km
Perigee altitude
504.282 km
Semi-major axis
6,893.656 km
Eccentricity
0.00163
Inclination
97.7579°
RAAN
261.5488°
Arg. of periapsis
318.7196°
True anomaly
41.40373°
Mean anomaly
41.2803°
Eccentric anomaly
41.34199°
Mean motion
3.792 °/min
Orbital period
94.94 mins
BSTAR
0.00060269
Loading maneuver chart data...
Computing Atmospheric mass density...
Loading historical data...
Loading historical data...
Loading historical data...
Loading historical data...
Loading historical data...
Loading historical data...
Loading historical data...

Documentation

Showing up to 5 results
|